Starlink 32221

operational
NORAD ID: 60342 Int'l Des: 2024-136 Owner: SPXS Country: US Constellation: starlink
LEOCIRCULAR

Über Starlink 32221

Beschreibung wird geladen...

Live-Position

3D-Globus wird geladen...

Nächste Überflüge

Höhenverlauf

Altitude vs Time

uPlot chart will show altitude changes over time

Zweizeiliger Elementsatz

1 60342U 24136P 25306.44595455 -.00001310 00000-0 -32127-4 0 9994
2 60342 53.1617 306.6500 0001445 78.6046 281.5117 15.30174086 70181
Epoch: 2. Nov. 2025 • Age: 34 hours

Aktueller Status

Höhe 494.8 km
Geschwindigkeit 7.62 km/s
Subsatellitenpunkt -53.24°S, 141.14°W
Startdatum 2. Aug. 2024
Alter 1.2 years
Typ internet

Technische Details

Klassifizierung Payload
Masse 730.00 kg
Trockenmasse 700.00 kg
Gesamtmasse 730.00 kg
Länge 0.30 m
Durchmesser 4.10 m
Spannweite 29.00 m
Form Box + pan
Hersteller SPXS
Bus-Typ Starlink V2M
Phasenstatus In Orbit
Besitzer/Staat SPXS/US

Große Konstellationen

Loading constellations...